FENGYUN 1C DEB, 32123

Orbit data source: Space-Track

FENGYUN 1C DEB, 32123 is space debris in SSO originally from a launch on Mon, 10 May 1999 UTC launched from the Taiyaun Space Center, China (TSC). Fengyun 1C debris stems from the Chinese weather satellite Fengyun-1C, which was intentionally destroyed by a Chinese anti-satellite missile in 2007. This event dramatically increased the amount of space debris, with thousands of trackable fragments posing hazards to satellites and human spaceflight. The Fengyun 1C debris cloud has become a focal point in discussions about space sustainability and the need for international regulations to prevent the creation of new debris.

Loading next visibility...
Identifier
32123, 1999-025CRR
Orbit
SSO
Country
Flag of CNCN / PRC
Related business
Manufacturer
Unknown
Mission
Spacecraft
Bus & Motor
Unknown
Mass
Unknown
Launch date (UTC)
1999-05-10 (27 years ago)
Launch vehicle
Unknown
Launch site
Taiyaun Space Center, China (TSC)
Object type
Payload
Rocket body
Debris
Shape & HBR
Unknown shape, 0.1 m
Radar Cross Section
Small (<0.1 m²)

Expand to show TLE details & history
Last TLE update: 2 days ago

TLE from 2 days ago
0 FENGYUN 1C DEB
1 32123U 99025CRR 26165.31025228  .00001197  00000-0  20906-3 0  9997
2 32123  98.9517 353.2379 0160139  90.8220  84.6900 14.62062023740560
Epoch: 2026-06-14T07:26Z
TLE epoch observation values (Epoch: 2026-06-14T07:26:45.796Z)
Latitude
2.52273°
Longitude
159.32975°
Altitude
680.525 km
Speed
7.521 km/s
True Right ascension
11h 34m 32s
True Declination
2° 30' 27"
Sunlit
Object was in daylight at epoch
Visualization orbit readout
Latitude
Unknown
Longitude
Unknown
Altitude
Unknown
Speed
Unknown
Apparent Right ascension
Unknown
Apparent Declination
Unknown
Sunlit
N/A
Visualization observer readout
Local Sidereal Time
20:20:35
Azimuth
Unknown
Elevation
Unknown
Doppler factor
Unknown
Orbital elements
Apogee altitude
796.724 km
Perigee altitude
570.551 km
Semi-major axis
7,061.774 km
Eccentricity
0.01601
Inclination
98.9517°
RAAN
353.2379°
Arg. of periapsis
90.822°
True anomaly
86.52026°
Mean anomaly
84.69°
Eccentric anomaly
85.60483°
Mean motion
3.6574 °/min
Orbital period
98.43 mins
BSTAR
0.00020906
Loading maneuver chart data...
Computing Atmospheric mass density...

Documentation

Showing up to 5 results
|